Date String (YYYY-MM-DD hh:mm:ss) UTC,Instrument flags,Ambient pressure (hPa),Sample flow (lpm),Bypass flow (lpm),Sample temperature (°C),Ambient temperature (°C),ASC tube jacket temperature (°C),LED temperature (°C),Box temperature (°C),Sample RH (%),Span deviation,Mass concentration (μg/m³),Mass concentration (μg/m³),Mass concentration (μg/m³)
DateTimeUTC,F1_M11,P_M11,Q1_M11,Q2_M11,T1_M11,T2_M11,T3_M11,T4_M11,T5_M11,U1_M11,ZSPAN_M11,X0_M11,X2_M11,X1_M11
2022-09-27 17:00:00,,0834.0,5.00,0.00,30.4,29.1,00.0,39.0,32.2,16.9,0000.0,0009.41,0004.12,0003.40
2022-09-27 17:01:00,,0834.1,5.00,0.00,30.4,29.2,00.0,39.0,32.3,17.0,0000.0,0009.40,0004.16,0003.40
2022-09-27 17:02:00,,0834.1,5.01,0.00,30.4,29.3,00.0,39.1,32.3,16.9,0000.0,0008.96,0004.17,0003.40
2022-09-27 17:03:00,,0834.1,4.99,0.00,30.5,28.4,00.0,39.1,32.3,17.1,0000.0,0010.23,0004.17,0003.40
2022-09-27 17:04:00,,0834.0,5.00,0.00,30.4,27.0,00.0,39.0,32.1,17.2,0000.0,0010.97,0004.21,0003.42
2022-09-27 17:05:00,,0834.1,5.00,0.00,30.3,26.8,00.0,39.0,32.1,17.2,0000.0,0011.34,0004.19,0003.42
2022-09-27 17:06:00,,0834.0,5.00,0.00,30.3,27.0,00.0,38.9,32.0,17.4,0000.0,0010.92,0004.18,0003.41
2022-09-27 17:07:00,,0834.1,5.01,0.00,30.2,27.3,00.0,38.9,31.9,17.2,0000.0,0011.00,0004.17,0003.41
2022-09-27 17:08:00,,0834.1,5.01,0.00,30.2,27.7,00.0,38.9,31.9,17.3,0000.0,0011.06,0004.16,0003.42
2022-09-27 17:09:00,,0834.0,4.99,0.00,30.1,28.0,00.0,38.9,31.9,17.4,0000.0,0010.85,0004.16,0003.42
2022-09-27 17:10:00,,0834.0,5.01,0.00,30.1,28.2,00.0,38.8,32.0,17.5,0000.0,0010.82,0004.18,0003.43
2022-09-27 17:11:00,,0834.1,4.99,0.00,30.2,28.5,00.0,38.9,32.0,17.4,0000.0,0010.75,0004.16,0003.44
2022-09-27 17:12:00,,0834.0,5.02,0.00,30.2,28.6,00.0,38.9,32.0,17.3,0000.0,0010.94,0004.13,0003.44
2022-09-27 17:13:00,,0834.0,4.99,0.00,30.2,28.8,00.0,38.9,32.1,17.3,0000.0,0011.17,0004.08,0003.44
2022-09-27 17:14:00,,0834.0,4.99,0.00,30.2,28.9,00.0,38.9,32.1,17.4,0000.0,0010.67,0004.06,0003.45
2022-09-27 17:15:00,,0834.0,5.02,0.00,30.2,29.0,00.0,38.9,32.1,17.2,0000.0,0009.97,0004.05,0003.46
2022-09-27 17:16:00,,0834.0,4.99,0.00,30.3,29.1,00.0,38.9,32.2,17.4,0000.0,0009.82,0004.09,0003.47
2022-09-27 17:17:00,,0834.0,5.00,0.00,30.3,29.2,00.0,38.9,32.2,17.7,0000.0,0010.88,0004.11,0003.47
2022-09-27 17:18:00,,0834.0,4.99,0.00,30.3,29.2,00.0,38.9,32.3,17.7,0000.0,0011.58,0004.12,0003.47
2022-09-27 17:19:00,,0834.0,5.00,0.00,30.3,29.3,00.0,39.0,32.3,17.3,0000.0,0011.84,0004.12,0003.46
2022-09-27 17:20:00,,0834.0,5.00,0.00,30.4,29.1,00.0,39.0,32.3,17.3,0000.0,0011.86,0004.12,0003.48
2022-09-27 17:21:00,,0834.0,5.01,0.00,30.4,27.9,00.0,39.0,32.2,17.3,0000.0,0012.12,0004.12,0003.49
2022-09-27 17:22:00,,0833.9,5.00,0.00,30.3,26.8,00.0,38.9,32.1,17.4,0000.0,0012.84,0004.15,0003.50
2022-09-27 17:23:00,,0833.9,5.00,0.00,30.3,26.9,00.0,38.9,32.0,17.6,0000.0,0013.50,0004.15,0003.51
2022-09-27 17:24:00,,0833.9,5.00,0.00,30.2,27.1,00.0,38.8,31.9,17.8,0000.0,0013.17,0004.17,0003.51
2022-09-27 17:25:00,,0833.9,4.99,0.00,30.1,27.4,00.0,38.8,31.8,17.5,0000.0,0012.44,0004.19,0003.52
2022-09-27 17:26:00,,0833.8,5.01,0.00,30.1,27.8,00.0,38.8,31.9,17.6,0000.0,0012.46,0004.16,0003.51
2022-09-27 17:27:00,,0833.9,5.00,0.00,30.1,28.0,00.0,38.8,31.9,18.1,0000.0,0012.03,0004.11,0003.50
2022-09-27 17:28:00,,0833.9,5.00,0.00,30.1,28.3,00.0,38.8,32.0,17.7,0000.0,0011.38,0004.12,0003.49
2022-09-27 17:29:00,,0833.9,5.00,0.00,30.1,28.5,00.0,38.8,32.0,17.5,0000.0,0010.76,0004.13,0003.49
2022-09-27 17:30:00,,0833.9,5.01,0.00,30.1,28.6,00.0,38.8,32.0,17.5,0000.0,0010.52,0004.12,0003.49
2022-09-27 17:31:00,,0833.9,4.99,0.00,30.1,28.8,00.0,38.8,32.0,17.5,0000.0,0011.05,0004.13,0003.49
2022-09-27 17:32:00,,0833.8,5.01,0.00,30.2,28.9,00.0,38.8,32.0,17.5,0000.0,0010.94,0004.10,0003.48
2022-09-27 17:33:00,,0833.9,4.99,0.00,30.2,29.0,00.0,38.8,32.1,17.6,0000.0,0010.52,0004.07,0003.47
2022-09-27 17:34:00,,0833.9,4.99,0.00,30.2,29.1,00.0,38.8,32.1,17.6,0000.0,0009.52,0004.06,0003.47
2022-09-27 17:35:00,,0833.8,5.00,0.00,30.3,29.2,00.0,38.9,32.2,17.6,0000.0,0009.54,0004.03,0003.47
2022-09-27 17:36:00,,0833.8,5.01,0.00,30.3,29.0,00.0,38.9,32.2,17.8,0000.0,0010.69,0004.06,0003.46
2022-09-27 17:37:00,,0833.8,4.99,0.00,30.3,27.9,00.0,38.9,32.1,17.9,0000.0,0010.62,0004.07,0003.47
2022-09-27 17:38:00,,0833.8,4.99,0.00,30.2,26.9,00.0,38.8,31.9,18.0,0000.0,0010.96,0004.08,0003.47
2022-09-27 17:39:00,,0833.7,5.00,0.00,30.2,27.0,00.0,38.8,31.9,18.0,0000.0,0011.17,0004.05,0003.48
2022-09-27 17:40:00,,0833.7,5.00,0.00,30.1,27.2,00.0,38.8,31.9,18.2,0000.0,0011.02,0004.05,0003.49
2022-09-27 17:41:00,,0833.7,5.01,0.00,30.1,27.5,00.0,38.8,31.8,18.0,0000.0,0011.13,0004.08,0003.50
2022-09-27 17:42:00,,0833.7,5.01,0.00,30.0,27.8,00.0,38.7,31.8,18.1,0000.0,0010.94,0004.06,0003.49
2022-09-27 17:43:00,,0833.7,4.98,0.00,30.0,28.1,00.0,38.7,31.9,18.1,0000.0,0010.84,0004.05,0003.48
2022-09-27 17:44:00,,0833.6,5.01,0.00,30.1,28.3,00.0,38.7,31.9,18.2,0000.0,0011.31,0004.06,0003.47
2022-09-27 17:45:00,,0833.7,4.99,0.00,30.1,28.5,00.0,38.7,32.0,17.9,0000.0,0011.41,0004.06,0003.46
2022-09-27 17:46:00,,0833.7,5.01,0.00,30.1,28.7,00.0,38.7,32.0,17.7,0000.0,0011.38,0004.05,0003.46
2022-09-27 17:47:00,,0833.7,5.00,0.00,30.1,28.8,00.0,38.8,32.0,17.6,0000.0,0010.17,0004.02,0003.46
2022-09-27 17:48:00,,0833.6,4.99,0.00,30.1,28.9,00.0,38.8,32.1,17.5,0000.0,0010.62,0004.01,0003.45
2022-09-27 17:49:00,,0833.6,5.00,0.00,30.2,29.0,00.0,38.8,32.1,17.5,0000.0,0011.67,0004.07,0003.46
2022-09-27 17:50:00,,0833.6,5.00,0.00,30.2,29.1,00.0,38.8,32.1,17.5,0000.0,0011.44,0004.11,0003.46
2022-09-27 17:51:00,,0833.6,5.02,0.00,30.2,29.0,00.0,38.8,32.2,17.7,0000.0,0012.20,0004.12,0003.47
2022-09-27 17:52:00,,0833.6,4.99,0.00,30.2,27.7,00.0,38.8,32.1,17.6,0000.0,0011.97,0004.07,0003.46
2022-09-27 17:53:00,,0833.6,4.99,0.00,30.2,26.7,00.0,38.8,31.9,17.8,0000.0,0012.07,0004.09,0003.47
2022-09-27 17:54:00,,0833.6,4.99,0.00,30.1,26.9,00.0,38.7,31.9,17.8,0000.0,0011.68,0004.09,0003.49
2022-09-27 17:55:00,,0833.6,5.00,0.00,30.1,27.1,00.0,38.7,31.8,17.6,0000.0,0011.08,0004.08,0003.50
2022-09-27 17:56:00,,0833.6,5.01,0.00,30.0,27.5,00.0,38.7,31.7,17.6,0000.0,0011.05,0004.08,0003.51
2022-09-27 17:57:00,,0833.6,4.98,0.00,30.0,27.8,00.0,38.7,31.8,17.5,0000.0,0011.23,0004.11,0003.51
2022-09-27 17:58:00,,0833.6,5.01,0.00,30.0,28.1,00.0,38.7,31.8,17.7,0000.0,0011.22,0004.11,0003.50
2022-09-27 17:59:00,,0833.6,4.99,0.00,30.0,28.3,00.0,38.7,31.9,17.7,0000.0,0010.63,0004.08,0003.49
